sat.trackr.live / text

‹ back to catalog

ONEWEB-0415

NORAD 51624 · 2022-012C

PAYLOAD ACTIVE UNKNOWN

§ Identity

Operator
Country
UK
Launch date
2022-02-10
Launch site
FRGUI
Launch vehicle
Mass (kg)
RCS (m²)

Purposes: comms

External: N2YO · Heavens-Above · Gunter

§ Orbital elements

Epoch: 2026-05-25T04:17:27.581280Z

Period
109.89 min
Inclination
87.8848°
Eccentricity
0.0001591
Mean motion
13.10370079 rev/d
Perigee alt
1,220.5 km
Apogee alt
1,222.9 km
Semi-major
7,599.9 km
B*
8.6500e-5
RAAN
40.8456°
Arg perigee
84.3737°
Mean anomaly
275.7572°
Rev number
20,627

§ Raw data

ONEWEB-04151 51624U 22012C   26145.17879145  .00000043  00000+0  86500-4 0  99942 51624  87.8848  40.8456 0001591  84.3737 275.7572 13.10370079206271

JSON: /api/v1/satellites/51624 · /tle

For live sub-satellite position, see the globe view (requires WebGL).

§ Visibility from observer

Set your observer location to see the next 7 days of passes ≥ 10°. The values pass through the URL so the page stays shareable.

No JS? Fill the form by hand. The geolocation button needs JavaScript.